Regional Weather Roundup
Issued by NWS Sioux Falls, SD

Home | Current Version | Previous Version | Text Only | Print | Product List | Glossary On
Versions: 1 2 3 4 5 6 7 8 9 10 11 12 13 14 15 16 17 18 19 20 21 22 23 24 25 26 27 28 29 30 31 32 33 34 35 36 37 38 39 40 41 42 43 44 45 46 47 48 49 50
000
ASUS43 KFSD 182110
RWRFSD

WEATHER ROUNDUP FOR SE SOUTH DAKOTA/SW MINNESOTA/NW IOWA
NATIONAL WEATHER SERVICE SIOUX FALLS SD
300 PM CST MON DEC 18 2017

NOTE: "FAIR" INDICATES FEW OR NO CLOUDS BELOW 12,000 FEET WITH NO
SIGNIFICANT WEATHER AND OR OBSTRUCTIONS TO VISIBILITY.


SDZ038>040-050-052>070-182200-
SOUTHEAST SOUTH DAKOTA

CITY           SKY/WX    TMP DP  RH WIND       PRES   REMARKS
BROOKINGS      CLOUDY    46  26  45 W14       29.67
CHAMBERLAIN    CLOUDY    56  28  34 W9G16     29.69S
HURON          CLOUDY    53  26  35 W12       29.66F
MADISON        FAIR      45  27  49 SW18G24   29.68F
MITCHELL       CLOUDY    51  27  39 SW14      29.69F
SIOUX FALLS    CLOUDY    50  27  40 SW12G18   29.70F
WINNER         FAIR      55  27  34 W14       29.70F
YANKTON        CLOUDY    51  26  37 SW13      29.73F
$$

MNZ071-072-080-081-089-090-097-098-182200-
SOUTHWEST MINNESOTA

CITY           SKY/WX    TMP DP  RH WIND       PRES   REMARKS
FAIRMONT       CLOUDY    44  29  55 SW14      29.73R
JACKSON        CLOUDY    43  27  52 SW9       29.71F
LUVERNE        CLOUDY    45  27  49 SW14      29.71F
MARSHALL       CLOUDY    48  27  44 W18G26    29.65F
MONTEVIDEO     CLOUDY    46  28  49 W8        29.62S
PIPESTONE      MOSUNNY   46  27  46 W13       29.68R
REDWOOD FALLS  PTSUNNY   47  29  49 SW10      29.65F
TRACY          PTSUNNY   46  30  53 SW13G20   29.66F
WINDOM           N/A     45  25  45 SW13G18   29.69F
WORTHINGTON    CLOUDY    44  27  51 SW16      29.70F
$$

IAZ001>003-012>014-020>022-031-032-NEZ013-014-SDZ071-182200-
NORTHWEST IOWA

CITY           SKY/WX    TMP DP  RH WIND       PRES   REMARKS
CHEROKEE       SUNNY     48  27  43 SW14G20   29.76F
DENISON        SUNNY     52  27  37 SW13G23   29.81F
ESTHERVILLE    CLOUDY    45  28  51 SW20      29.73F
LE MARS        CLOUDY    52  25  35 SW13G18   29.75F
ORANGE CITY    CLOUDY    50  28  43 SW14      29.73F
SHELDON        CLOUDY    48  28  46 SW15      29.71F
SIOUX CITY     CLOUDY    53  25  33 SW16      29.77F
SPENCER        CLOUDY    47  26  44 W16       29.74F
STORM LAKE     SUNNY     46  28  49 SW16G22   29.77S
$$

ABBREVIATIONS USED IN REMARKS
   TC - TEMPERATURE IN CELSIUS
  WCI - WIND CHILL INDEX
   HX - HEAT INDEX
  VSB - VISIBILITY




USA.gov is the U.S. government's official web portal to all federal, state and local government web resources and services.